Ortonville, MN

3:39 PM CST on December 16, 2017 (GMT -0600)
Ortonville Municipal-Martinson

Weather History for KVVV - March, 2013

Change the Weather History Date:

Sunday, March 31, 2013

  Actual Average (KAQP) Record (KAQP)
Temperature  
Mean Temperature 27 °F -  
Max Temperature 33 °F 43 °F 75 °F (2003)
Min Temperature 19 °F 25 °F 19 °F (2014)
Degree Days  
Heating Degree Days 38    
Moisture  
Dew Point 21 °F    
Average Humidity 74    
Maximum Humidity 93    
Minimum Humidity 59    
Precipitation  
Precipitation 0.00 in - - ()
Sea Level Pressure  
Sea Level Pressure 30.02 in    
Wind  
Wind Speed 14 mph (NNW)    
Max Wind Speed 25 mph    
Max Gust Speed 33 mph    
Visibility 10 miles    
Events      
Averages and records for this station are not official NWS values.
T = Trace of Precipitation, MM = Missing Value Source: NWS Daily Summary

Daily Weather History Graph

Daily Weather History Graph

Search for Another Location

Airport or City:

Trip Planner

Search our weather history database for the weather conditions in past years. The results will help you decide how hot, cold, wet, or windy it might be!

Date:

Astronomy

Mar. 31, 2013 Rise Set
Actual Time 7:07 AM CDT 7:52 PM CDT
Civil Twilight 6:37 AM CDT 8:22 PM CDT
Nautical Twilight 6:02 AM CDT 8:58 PM CDT
Astronomical Twilight 5:25 AM CDT 9:35 PM CDT
Moon 12:11 AM CDT (3/31) 9:44 AM CDT (3/31)
Length of Visible Light 13h 45m
Length of Day
12h 45m
Waning Gibbous, 77% of the Moon is Illuminated
Mar 31
Waning Gibbous
Apr 2
Last Quarter
Apr 10
New
Apr 18
First Quarter
Apr 25
Full

Hourly Weather History & Observations

Time (CDT) Temp. Windchill Dew Point Humidity Pressure Visibility Wind Dir Wind Speed Gust Speed Precip Events Conditions
12:14 AM 33.8 °F 29.6 °F 30.2 °F 87% 29.92 in 5.0 mi WSW 4.6 mph - N/A   Overcast
12:33 AM 33.8 °F 28.6 °F 30.2 °F 87% 29.92 in 5.0 mi West 5.8 mph - N/A   Overcast
12:54 AM 32.0 °F 26.4 °F 30.2 °F 93% 29.93 in 5.0 mi West 5.8 mph - N/A   Mostly Cloudy
1:14 AM 33.8 °F 27.0 °F 30.2 °F 87% 29.92 in 7.0 mi West 8.1 mph - N/A   Mostly Cloudy
1:34 AM 33.8 °F 26.4 °F 28.4 °F 81% 29.92 in 7.0 mi WNW 9.2 mph - N/A   Scattered Clouds
1:54 AM 33.8 °F 25.8 °F 28.4 °F 81% 29.91 in 10.0 mi WNW 10.4 mph - N/A   Clear
2:14 AM 33.8 °F 27.0 °F 28.4 °F 81% 29.91 in 10.0 mi WNW 8.1 mph - N/A   Clear
2:34 AM 33.8 °F 26.4 °F 28.4 °F 81% 29.91 in 10.0 mi WNW 9.2 mph - N/A   Mostly Cloudy
2:54 AM 33.8 °F 27.0 °F 28.4 °F 81% 29.90 in 10.0 mi WNW 8.1 mph - N/A   Mostly Cloudy
3:14 AM 33.8 °F 27.7 °F 28.4 °F 81% 29.90 in 10.0 mi WNW 6.9 mph - N/A   Scattered Clouds
3:34 AM 33.8 °F 25.3 °F 28.4 °F 81% 29.89 in 10.0 mi WNW 11.5 mph 16.1 mph N/A   Clear
3:54 AM 33.8 °F 24.8 °F 28.4 °F 81% 29.88 in 10.0 mi WNW 12.7 mph - N/A   Clear
4:14 AM 33.8 °F 23.9 °F 26.6 °F 75% 29.88 in 10.0 mi NW 15.0 mph 24.2 mph N/A   Clear
4:34 AM 33.8 °F 24.8 °F 26.6 °F 75% 29.88 in 10.0 mi WNW 12.7 mph - N/A   Clear
4:54 AM 33.8 °F 24.3 °F 26.6 °F 75% 29.88 in 10.0 mi WNW 13.8 mph 18.4 mph N/A   Clear
5:14 AM 33.8 °F 24.3 °F 26.6 °F 75% 29.88 in 10.0 mi NW 13.8 mph - N/A   Clear
5:33 AM 32.0 °F 21.6 °F 26.6 °F 80% 29.88 in 10.0 mi NW 15.0 mph 20.7 mph N/A   Scattered Clouds
5:54 AM 32.0 °F 21.2 °F 26.6 °F 80% 29.88 in 10.0 mi NW 16.1 mph 24.2 mph N/A   Mostly Cloudy
6:14 AM 32.0 °F 20.8 °F 26.6 °F 80% 29.88 in 10.0 mi NW 17.3 mph 27.6 mph N/A   Overcast
6:33 AM 32.0 °F 20.8 °F 26.6 °F 80% 29.89 in 10.0 mi NW 17.3 mph 26.5 mph N/A   Overcast
6:54 AM 32.0 °F 21.6 °F 26.6 °F 80% 29.89 in 10.0 mi NW 15.0 mph 25.3 mph N/A   Overcast
7:14 AM 30.2 °F 19.3 °F 26.6 °F 86% 29.90 in 10.0 mi NW 15.0 mph 21.9 mph N/A   Overcast
7:34 AM 32.0 °F 21.2 °F 26.6 °F 80% 29.91 in 10.0 mi NW 16.1 mph 25.3 mph N/A   Overcast
7:54 AM 32.0 °F 20.1 °F 26.6 °F 80% 29.92 in 10.0 mi NNW 19.6 mph 27.6 mph N/A   Overcast
8:14 AM 30.2 °F 16.8 °F 26.6 °F 86% 29.94 in 10.0 mi North 23.0 mph 26.5 mph N/A   Overcast
8:34 AM 28.4 °F 14.1 °F 24.8 °F 86% 29.95 in 10.0 mi North 24.2 mph 31.1 mph N/A   Mostly Cloudy
8:54 AM 28.4 °F 14.1 °F 23.0 °F 80% 29.97 in 10.0 mi NNW 24.2 mph 33.4 mph N/A   Scattered Clouds
9:13 AM 28.4 °F 15.4 °F 21.2 °F 74% 29.98 in 10.0 mi NNW 19.6 mph 29.9 mph N/A   Scattered Clouds
9:34 AM 28.4 °F 15.1 °F 21.2 °F 74% 29.99 in 10.0 mi NNW 20.7 mph 29.9 mph N/A   Overcast
9:54 AM 28.4 °F 15.8 °F 21.2 °F 74% 29.99 in 10.0 mi NNW 18.4 mph 27.6 mph N/A   Overcast
10:14 AM 30.2 °F 17.8 °F 23.0 °F 75% 29.99 in 10.0 mi NNW 19.6 mph 23.0 mph N/A   Overcast
10:34 AM 30.2 °F 16.8 °F 21.2 °F 69% 30.00 in 10.0 mi North 23.0 mph 28.8 mph N/A   Overcast
10:54 AM 28.4 °F 14.1 °F 21.2 °F 74% 30.01 in 10.0 mi North 24.2 mph 28.8 mph N/A   Mostly Cloudy
11:14 AM 28.4 °F 14.1 °F 19.4 °F 69% 30.02 in 10.0 mi NNW 24.2 mph 29.9 mph N/A   Scattered Clouds
11:34 AM 28.4 °F 13.8 °F 17.6 °F 64% 30.02 in 10.0 mi NNW 25.3 mph 29.9 mph N/A   Scattered Clouds
11:54 AM 28.4 °F 13.8 °F 15.8 °F 59% 30.03 in 10.0 mi NNW 25.3 mph 29.9 mph N/A   Clear
12:13 PM 28.4 °F 15.4 °F 15.8 °F 59% 30.04 in 10.0 mi NNW 19.6 mph 28.8 mph N/A   Clear
12:34 PM 28.4 °F 14.1 °F 15.8 °F 59% 30.04 in 10.0 mi NNW 24.2 mph 31.1 mph N/A   Clear
12:53 PM 28.4 °F 14.7 °F 17.6 °F 64% 30.04 in 10.0 mi NNW 21.9 mph 28.8 mph N/A   Scattered Clouds
1:14 PM 28.4 °F 16.2 °F 17.6 °F 64% 30.04 in 10.0 mi NNW 17.3 mph 26.5 mph N/A   Scattered Clouds
1:34 PM 28.4 °F 15.8 °F 17.6 °F 64% 30.05 in 10.0 mi North 18.4 mph 26.5 mph N/A   Scattered Clouds
1:54 PM 28.4 °F 15.1 °F 17.6 °F 64% 30.05 in 10.0 mi NNW 20.7 mph 27.6 mph N/A   Scattered Clouds
2:14 PM 28.4 °F 16.2 °F 17.6 °F 64% 30.05 in 10.0 mi NNW 17.3 mph 27.6 mph N/A   Scattered Clouds
2:34 PM 28.4 °F 16.6 °F 17.6 °F 64% 30.05 in 10.0 mi NNW 16.1 mph 25.3 mph N/A   Scattered Clouds
2:54 PM 28.4 °F 15.4 °F 17.6 °F 64% 30.06 in 10.0 mi NNW 19.6 mph 25.3 mph N/A   Mostly Cloudy
3:13 PM 28.4 °F 15.1 °F 19.4 °F 69% 30.06 in 10.0 mi North 20.7 mph 27.6 mph N/A   Mostly Cloudy
3:34 PM 28.4 °F 15.1 °F 17.6 °F 64% 30.07 in 10.0 mi NNW 20.7 mph - N/A   Scattered Clouds
3:53 PM 26.6 °F 12.7 °F 17.6 °F 69% 30.07 in 10.0 mi North 20.7 mph - N/A   Scattered Clouds
4:14 PM 26.6 °F 12.7 °F 17.6 °F 69% 30.08 in 10.0 mi NNW 20.7 mph 26.5 mph N/A   Scattered Clouds
4:34 PM 26.6 °F 12.7 °F 17.6 °F 69% 30.09 in 10.0 mi North 20.7 mph - N/A   Scattered Clouds
4:53 PM 26.6 °F 12.4 °F 15.8 °F 64% 30.09 in 10.0 mi NNW 21.9 mph - N/A   Scattered Clouds
5:14 PM 26.6 °F 13.1 °F 15.8 °F 64% 30.09 in 10.0 mi NNW 19.6 mph - N/A   Scattered Clouds
5:34 PM 26.6 °F 12.7 °F 17.6 °F 69% 30.10 in 10.0 mi North 20.7 mph 25.3 mph N/A   Scattered Clouds
5:54 PM 26.6 °F 13.8 °F 15.8 °F 64% 30.10 in 10.0 mi NNW 17.3 mph 25.3 mph N/A   Scattered Clouds
6:14 PM 26.6 °F 13.1 °F 15.8 °F 64% 30.11 in 10.0 mi NNW 19.6 mph 24.2 mph N/A   Clear
6:34 PM 24.8 °F 11.5 °F 15.8 °F 69% 30.12 in 10.0 mi North 17.3 mph - N/A   Scattered Clouds
6:53 PM 24.8 °F 11.1 °F 17.6 °F 74% 30.12 in 10.0 mi North 18.4 mph - N/A   Scattered Clouds
7:14 PM 24.8 °F 10.7 °F 15.8 °F 69% 30.13 in 10.0 mi North 19.6 mph - N/A   Scattered Clouds
7:34 PM 23.0 °F 8.3 °F 15.8 °F 74% 30.14 in 10.0 mi North 19.6 mph - N/A   Scattered Clouds
7:53 PM 23.0 °F 10.6 °F 15.8 °F 74% 30.14 in 10.0 mi North 13.8 mph 23.0 mph N/A   Clear
8:14 PM 21.2 °F 7.3 °F 15.8 °F 80% 30.15 in 10.0 mi North 16.1 mph - N/A   Clear
8:34 PM 21.2 °F 8.9 °F 15.8 °F 80% 30.15 in 10.0 mi NNW 12.7 mph - N/A   Clear
8:54 PM 21.2 °F 9.5 °F 15.8 °F 80% 30.16 in 10.0 mi NNW 11.5 mph - N/A   Scattered Clouds
9:14 PM 21.2 °F 7.8 °F 15.8 °F 80% 30.17 in 10.0 mi NNW 15.0 mph 20.7 mph N/A   Overcast
9:34 PM 23.0 °F 10.6 °F 15.8 °F 74% 30.18 in 10.0 mi NNW 13.8 mph - N/A   Overcast
9:54 PM 21.2 °F 7.8 °F 15.8 °F 80% 30.19 in 10.0 mi NNW 15.0 mph 23.0 mph N/A   Overcast
10:14 PM 21.2 °F 8.9 °F 15.8 °F 80% 30.19 in 10.0 mi NNW 12.7 mph 19.6 mph N/A   Overcast
10:34 PM 21.2 °F 8.3 °F 14.0 °F 74% 30.20 in 10.0 mi NNW 13.8 mph - N/A   Overcast
11:14 PM 21.2 °F 8.9 °F 14.0 °F 74% 30.20 in 10.0 mi NNW 12.7 mph - N/A   Scattered Clouds
11:33 PM 21.2 °F 8.9 °F 12.2 °F 68% 30.20 in 10.0 mi NNW 12.7 mph - N/A   Clear
11:54 PM 19.4 °F 7.9 °F 12.2 °F 74% 30.21 in 10.0 mi NNW 10.4 mph - N/A   Clear